FW0338 Weather Reports


time (UTC)temp
F
wind
direction
speed
knots
gust
knots
rain 1hr
in
rain 24hr
in
rain mn
in
humidity
%
barometer
mb
20260505125031 66 186 3.5 7.0 0.00 0.00 0.00 90 1009.9
20260505124530 66 171 3.5 7.0 0.00 0.00 0.00 90 1010.1
20260505124028 66 173 3.5 5.2 0.00 0.00 0.00 90 1009.9
20260505123751 66 173 3.5 7.8 0.00 0.00 0.00 90 1010.0
20260505123029 66 178 4.3 7.8 0.00 0.00 0.00 90 1009.9
20260505122529 65 176 3.5 7.0 0.00 0.00 0.00 90 1009.9
20260505122253 65 182 3.5 7.0 0.00 0.00 0.00 90 1009.8
20260505121529 65 171 3.5 7.0 0.00 0.00 0.00 91 1009.6
20260505121258 65 179 2.6 7.0 0.00 0.00 0.00 90 1009.5
20260505121013 65 179 3.5 7.0 0.00 0.00 0.00 90 1009.7
20260505120251 64 182 2.6 6.1 0.00 0.00 0.00 91 1009.6
20260505115529 64 170 3.5 5.2 0.00 0.00 0.00 91 1009.7
20260505115028 64 172 1.7 4.3 0.00 0.00 0.00 91 1009.6
20260505114529 64 174 2.6 7.0 0.00 0.00 0.00 91 1009.6
20260505114029 64 171 3.5 7.0 0.00 0.00 0.00 91 1009.6
20260505113528 64 164 2.6 5.2 0.00 0.00 0.00 91 1009.5
20260505113031 63 180 1.7 7.0 0.00 0.00 0.00 91 1009.6
20260505112531 63 175 2.6 7.0 0.00 0.00 0.00 91 1009.6
20260505112031 63 174 1.7 4.3 0.00 0.00 0.00 90 1009.6
20260505111531 63 178 2.6 5.2 0.00 0.00 0.00 90 1009.7
20260505111031 63 161 2.6 6.1 0.00 0.00 0.00 90 1009.7
20260505110531 63 168 2.6 6.1 0.00 0.00 0.00 90 1009.7
20260505101529 63 174 3.5 5.2 0.00 0.00 0.00 89 1009.8
20260505101029 63 175 2.6 3.5 0.00 0.00 0.00 89 1009.8
20260505100748 63 175 1.7 3.5 0.00 0.00 0.00 89 1009.8
20260505100029 63 171 1.7 4.3 0.00 0.00 0.00 89 1009.7
20260505095752 63 176 1.7 5.2 0.00 0.00 0.00 89 1009.6
20260505095029 63 179 2.6 5.2 0.00 0.00 0.00 89 1009.8
20260505094529 63 146 1.7 3.5 0.00 0.00 0.00 88 1009.9
20260505094246 63 179 1.7 3.5 0.00 0.00 0.00 88 1009.8
20260505093529 63 176 1.7 3.5 0.00 0.00 0.00 88 1009.8
20260505093028 63 185 1.7 4.3 0.00 0.00 0.00 88 1009.8
20260505092529 63 155 1.7 5.2 0.00 0.00 0.00 88 1010.0
20260505092029 63 176 1.7 5.2 0.00 0.00 0.00 88 1010.0
20260505091750 63 173 1.7 4.3 0.00 0.00 0.00 88 1009.9
20260505091029 63 164 1.7 3.5 0.00 0.00 0.00 88 1010.0
20260505090529 63 172 0.9 2.6 0.00 0.00 0.00 88 1010.1
20260505090029 63 173 1.7 2.6 0.00 0.00 0.00 87 1010.2
20260505085529 63 173 0.9 2.6 0.00 0.00 0.00 87 1010.3
20260505085029 63 191 1.7 2.6 0.00 0.00 0.00 87 1010.2
20260505084529 63 191 1.7 3.5 0.00 0.00 0.00 86 1010.3
20260505084028 63 192 1.7 3.5 0.00 0.00 0.00 86 1010.1
20260505083529 64 182 2.6 4.3 0.00 0.00 0.00 86 1009.9
20260505083005 64 175 2.6 4.3 0.00 0.00 0.00 86 1009.8
20260505082502 64 179 1.7 4.3 0.00 0.00 0.00 86 1009.8
20260505082001 64 169 2.6 4.3 0.00 0.00 0.00 86 1009.7
20260505081501 64 173 1.7 4.3 0.00 0.00 0.00 86 1009.9
20260505081001 64 173 1.7 4.3 0.00 0.00 0.00 85 1009.9
20260505080502 64 184 1.7 4.3 0.00 0.00 0.00 85 1009.9
20260505080000 64 173 2.6 4.3 0.00 0.00 0.00 85 1009.8
20260505075501 64 178 2.6 4.3 0.00 0.00 0.00 85 1009.9
20260505075001 64 171 1.7 3.5 0.00 0.00 0.00 84 1010.1
20260505074457 64 171 2.6 3.5 0.00 0.00 0.00 84 1010.1
20260505073956 64 191 1.7 3.5 0.00 0.00 0.00 84 1010.1
20260505073657 64 173 1.7 5.2 0.00 0.00 0.00 84 1010.1
20260505073645 64 182 1.7 3.5 0.00 0.00 0.00 84 1010.1
20260505072430 64 173 1.7 5.2 0.00 0.00 0.00 84 1010.2
20260505071929 64 187 2.6 4.3 0.00 0.00 0.00 84 1010.2
20260505071429 64 175 1.7 3.5 0.00 0.00 0.00 83 1010.2
20260505070930 64 178 1.7 3.5 0.00 0.00 0.00 83 1010.3
20260505070649 64 135 1.7 4.3 0.00 0.00 0.00 83 1010.4
20260505065929 64 175 2.6 4.3 0.00 0.00 0.00 82 1010.5
20260505065658 64 172 2.6 4.3 0.00 0.00 0.00 82 1010.3
20260505065149 64 171 1.7 4.3 0.00 0.00 0.00 82 1010.4
20260505064429 64 171 2.6 4.3 0.00 0.00 0.00 82 1010.7
20260505063928 65 177 2.6 4.3 0.00 0.00 0.00 82 1010.7
20260505063428 65 148 1.7 4.3 0.00 0.00 0.00 81 1010.7
20260505062928 65 173 2.6 5.2 0.00 0.00 0.00 81 1010.7
20260505062428 65 182 3.5 6.1 0.00 0.00 0.00 81 1010.8
20260505061931 65 184 2.6 6.1 0.00 0.00 0.00 81 1010.8
20260505061432 65 128 1.7 4.3 0.00 0.00 0.00 81 1010.8
20260505060931 65 188 1.7 4.3 0.00 0.00 0.00 81 1010.9
20260505060703 65 173 1.7 4.3 0.00 0.00 0.00 81 1011.0
20260505055931 65 172 2.6 4.3 0.00 0.00 0.00 80 1010.9
20260505055431 65 175 2.6 4.3 0.00 0.00 0.00 80 1010.9
20260505054931 65 184 1.7 4.3 0.00 0.00 0.00 80 1011.1
20260505054431 65 175 1.7 4.3 0.00 0.00 0.00 80 1011.1
20260505053931 65 161 2.6 4.3 0.00 0.00 0.00 80 1011.1
20260505053431 65 180 1.7 4.3 0.00 0.00 0.00 80 1011.1
20260505052931 65 161 1.7 4.3 0.00 0.00 0.00 80 1011.2
20260505052431 65 169 1.7 4.3 0.00 0.00 0.00 80 1011.4
20260505051931 65 196 1.7 3.5 0.00 0.00 0.00 80 1011.2
20260505051913 65 202 1.7 3.5 0.00 0.00 0.00 80 1011.6
20260505051153 65 190 1.7 3.5 0.00 0.00 0.00 80 1011.7
20260505050429 65 190 1.7 3.5 0.00 0.00 0.00 80 1011.8
20260505041650 65 177 2.6 4.3 0.00 0.00 0.00 82 1011.4
20260505040931 64 196 1.7 3.5 0.00 0.00 0.00 82 1011.7
20260505040432 64 196 1.7 3.5 0.00 0.00 0.00 83 1011.7
20260505040420 64 175 1.7 2.6 0.00 0.00 0.00 82 1011.7
20260505035431 65 175 1.7 3.5 0.00 0.00 0.00 82 1011.6
20260505035154 65 175 1.7 3.5 0.00 0.00 0.00 82 1011.8
20260505034431 65 175 1.7 2.6 0.00 0.00 0.00 82 1011.7
20260505033931 65 175 1.7 2.6 0.00 0.00 0.00 82 1011.7
20260505033431 65 175 1.7 2.6 0.00 0.00 0.00 82 1011.6
20260505033150 65 175 1.7 2.6 0.00 0.00 0.00 81 1011.6
20260505032655 65 175 1.7 2.6 0.00 0.00 0.00 81 1011.7
20260505031930 65 174 1.7 2.6 0.00 0.00 0.00 81 1011.7
20260505031649 65 176 1.7 2.6 0.00 0.00 0.00 80 1011.5
20260505030904 65 176 1.7 2.6 0.00 0.00 0.00 80 1011.6
20260505030403 66 176 1.7 2.6 0.00 0.00 0.00 80 1011.5
20260505030121 66 176 1.7 2.6 0.00 0.00 0.00 79 1011.6
20260505025403 66 176 1.7 2.6 0.00 0.00 0.00 79 1011.5
20260505024903 67 176 1.7 2.6 0.00 0.00 0.00 78 1011.5
20260505024403 67 176 0.9 2.6 0.00 0.00 0.00 77 1011.3
20260505023903 67 176 1.7 3.5 0.00 0.00 0.00 77 1011.4
20260505023403 67 195 1.7 3.5 0.00 0.00 0.00 76 1011.1
20260505022903 67 167 1.7 3.5 0.00 0.00 0.00 76 1011.0
20260505022403 68 182 1.7 3.5 0.00 0.00 0.00 76 1010.9
20260505021903 68 182 1.7 3.5 0.00 0.00 0.00 75 1011.1
20260505021403 68 182 1.7 3.5 0.00 0.00 0.00 75 1011.1
20260505021130 68 157 1.7 2.6 0.00 0.00 0.00 75 1010.9
20260505020403 68 156 1.7 3.5 0.00 0.00 0.00 75 1011.1
20260505020128 68 192 2.6 4.3 0.00 0.00 0.00 74 1011.1
20260505015404 68 171 1.7 4.3 0.00 0.00 0.00 74 1010.8
20260505015344 69 192 2.6 4.3 0.00 0.00 0.00 74 1010.9
20260505014852 69 165 1.7 4.3 0.00 0.00 0.00 74 1010.8
20260505014332 69 164 0.9 3.5 0.00 0.00 0.00 73 1010.8
20260505014055 69 164 1.7 3.5 0.00 0.00 0.00 73 1010.8
20260505012903 69 164 0.9 1.7 0.00 0.00 0.00 74 1010.8
20260505012403 69 140 0.9 1.7 0.00 0.00 0.00 74 1010.8
20260505011903 69 142 0.9 1.7 0.00 0.00 0.00 73 1010.7
20260505011403 69 142 0.0 1.7 0.00 0.00 0.00 73 1010.8
20260505010903 70 142 0.0 1.7 0.00 0.00 0.00 73 1010.9
20260505010403 70 142 0.9 1.7 0.00 0.00 0.00 72 1010.8
20260505010133 70 142 0.9 1.7 0.00 0.00 0.00 72 1010.8
20260505005402 71 177 0.9 1.7 0.00 0.00 0.00 71 1010.6
20260505004903 71 177 0.9 3.5 0.00 0.00 0.00 71 1010.6
20260505004402 71 177 1.7 3.5 0.00 0.00 0.00 70 1010.5
20260505004118 71 167 2.6 4.3 0.00 0.00 0.00 70 1010.6
20260505003402 72 169 1.7 4.3 0.00 0.00 0.00 69 1010.5
20260505002902 72 169 1.7 3.5 0.00 0.00 0.00 69 1010.7
20260505002623 72 167 2.6 3.5 0.00 0.00 0.00 69 1010.7
20260505002347 73 155 1.7 3.5 0.00 0.00 0.00 68 1010.6
20260505001627 73 185 2.6 3.5 0.00 0.00 0.00 68 1010.6
20260505000901 73 183 2.6 4.3 0.00 0.00 0.00 68 1010.6
20260505000335 74 175 2.6 5.2 0.00 0.00 0.00 66 1010.6
20260504235830 74 174 2.6 5.2 0.00 0.00 0.00 67 1010.8
20260504235329 74 173 2.6 7.0 0.00 0.00 0.00 66 1010.9
20260504234829 74 189 2.6 7.0 0.00 0.00 0.00 65 1011.1
20260504234329 74 169 1.7 5.2 0.00 0.00 0.00 65 1010.9
20260504234053 75 165 4.3 5.2 0.00 0.00 0.00 63 1011.1
20260504233329 75 180 3.5 5.2 0.00 0.00 0.00 62 1011.3
20260504233100 75 178 3.5 6.1 0.00 0.00 0.00 64 1011.4
20260504232329 75 213 2.6 6.1 0.00 0.00 0.00 63 1011.5
20260504231829 75 180 3.5 7.0 0.00 0.00 0.00 63 1011.5
20260504231329 75 193 4.3 7.0 0.00 0.00 0.00 63 1011.5
20260504230829 76 181 2.6 7.8 0.00 0.00 0.00 62 1011.4
20260504230329 76 188 3.5 7.8 0.00 0.00 0.00 62 1011.6
20260504225828 76 171 4.3 7.0 0.00 0.00 0.00 60 1011.6
20260504225329 76 226 5.2 7.0 0.00 0.00 0.00 62 1011.8
20260504224829 76 184 5.2 6.1 0.00 0.00 0.00 61 1011.7
20260504224329 76 159 3.5 8.7 0.00 0.00 0.00 61 1011.7
20260504223829 76 175 4.3 8.7 0.00 0.00 0.00 59 1011.7
20260504223329 77 176 4.3 7.0 0.00 0.00 0.00 61 1011.8
20260504222829 77 183 3.5 5.2 0.00 0.00 0.00 61 1011.9
20260504222329 77 192 5.2 11.3 0.00 0.00 0.00 59 1011.8
20260504221828 77 201 7.8 11.3 0.00 0.00 0.00 58 1011.8
20260504221314 77 186 4.3 7.8 0.00 0.00 0.00 61 1011.9
20260504220813 77 178 5.2 8.7 0.00 0.00 0.00 60 1011.8
20260504220308 76 187 5.2 9.6 0.00 0.00 0.00 60 1011.9
20260504220249 77 188 6.1 10.4 0.00 0.00 0.00 59 1012.1
20260504220012 76 242 5.2 10.4 0.00 0.00 0.00 59 1012.0
20260504214801 77 188 4.3 7.8 0.00 0.00 0.00 62 1012.2
20260504214301 76 227 5.2 8.7 0.00 0.00 0.00 58 1012.2
20260504213802 77 202 4.3 8.7 0.00 0.00 0.00 59 1012.3
20260504213301 77 198 4.3 8.7 0.00 0.00 0.00 60 1012.2
20260504212801 77 211 6.1 8.7 0.00 0.00 0.00 59 1012.5
20260504212757 77 206 4.3 9.6 0.00 0.00 0.00 60 1012.6
20260504211800 78 245 6.1 11.3 0.00 0.00 0.00 58 1012.6
20260504211300 78 194 5.2 11.3 0.00 0.00 0.00 60 1012.6
20260504210801 78 181 3.5 8.7 0.00 0.00 0.00 57 1012.4
20260504210301 78 176 5.2 8.7 0.00 0.00 0.00 59 1012.6
20260504205801 78 192 4.3 8.7 0.00 0.00 0.00 56 1012.6
20260504205301 78 174 4.3 6.1 0.00 0.00 0.00 58 1012.6
20260504205012 77 177 3.5 10.4 0.00 0.00 0.00 57 1012.7
20260504205002 77 194 2.6 7.8 0.00 0.00 0.00 57 1012.6
20260504203804 76 241 6.1 10.4 0.00 0.00 0.00 60 1012.8
20260504203303 76 237 4.3 8.7 0.00 0.00 0.00 55 1012.9
20260504203028 77 171 4.3 8.7 0.00 0.00 0.00 56 1013.0
20260504202304 77 175 5.2 11.3 0.00 0.00 0.00 60 1013.3
20260504201803 77 190 7.0 11.3 0.00 0.00 0.00 57 1013.2
20260504201524 77 207 6.1 8.7 0.00 0.00 0.00 56 1013.3
20260504200753 77 222 4.3 8.7 0.00 0.00 0.00 57 1013.3
20260504200249 77 209 6.1 0.0 0.00 0.00 0.00 57 1013.5
20260504195903 0 0.0 0.0 0.00 0.00 0.00
20260504195402 0 0.0 0.0 0.00 0.00 0.00
20260504194831 0 0.0 0.0 0.00 0.00 0.00
20260504194330 0 0.0 0.0 0.00 0.00 0.00
20260504193804 0 0.0 0.0 0.00 0.00 0.00
20260504193302 0 0.0 0.0 0.00 0.00 0.00
20260504192731 0 0.0 0.0 0.00 0.00 0.00
20260504192719 0 0.0 0.0 0.00 0.00 0.00
20260504191925 0 0.0 0.0 0.00 0.00 0.00
20260504191202 0 0.0 0.0 0.00 0.00 0.00
20260504190631 0 0.0 0.0 0.00 0.00 0.00
20260504190130 0 0.0 0.0 0.00 0.00 0.00
20260504185603 0 0.0 0.0 0.00 0.00 0.00
20260504185102 0 0.0 0.0 0.00 0.00 0.00
20260504184532 0 0.0 0.0 0.00 0.00 0.00
20260504184030 0 0.0 0.0 0.00 0.00 0.00
20260504183503 0 0.0 0.0 0.00 0.00 0.00
20260504183003 0 0.0 0.0 0.00 0.00 0.00
20260504182432 0 0.0 0.0 0.00 0.00 0.00
20260504181930 0 0.0 0.0 0.00 0.00 0.00
20260504181403 0 0.0 0.0 0.00 0.00 0.00
20260504181124 0 0.0 0.0 0.00 0.00 0.00
20260504180303 0 0.0 0.0 0.00 0.00 0.00
20260504175802 0 0.0 0.0 0.00 0.00 0.00
20260504175523 0 0.0 0.0 0.00 0.00 0.00
20260504175512 0 0.0 0.0 0.00 0.00 0.00
20260504174203 0 0.0 0.0 0.00 0.00 0.00
20260504173702 0 0.0 0.0 0.00 0.00 0.00
20260504173131 0 0.0 0.0 0.00 0.00 0.00
20260504172630 0 0.0 0.0 0.00 0.00 0.00
20260504172103 0 0.0 0.0 0.00 0.00 0.00
20260504171602 0 0.0 0.0 0.00 0.00 0.00
20260504171031 0 0.0 0.0 0.00 0.00 0.00
20260504170531 0 0.0 0.0 0.00 0.00 0.00
20260504160303 73 199 6.1 10.4 0.00 0.00 0.00 59 1015.9
20260504150804 71 155 5.2 10.4 0.00 0.00 0.00 67 1016.0
20260504150303 71 194 6.1 8.7 0.00 0.00 0.00 65 1015.8
20260504141303 68 212 2.6 5.2 0.00 0.00 0.00 78 1016.1
20260504140803 67 209 2.6 5.2 0.00 0.00 0.00 77 1016.1
20260504140304 67 189 2.6 5.2 0.00 0.00 0.00 80 1016.0